User: anonymous   Login
Location: NC_16_and_73
(35.4490°N, 81.0150°W)
Time: 16:37:02
(UTC-04:00)
Language:

Cosmos-2242 - Orbit

View from above orbital plane
View from above orbital plane
View from above satellite
View from above satellite

Ground track
Ground track

The orbit data is extracted from the following two-line orbital elements,

1 22626U 93024A   15142.17681039  .00001130  00000-0  12315-3 0  9994
2 22626 082.5241 035.1613 0020827 110.8791 249.4659 14.86957824193621
Epoch (UTC): 22 May 2015 04:14:36
Eccentricity: 0.0020827
inclination: 82.5241°
perigee height: 593 km
apogee height: 622 km
right ascension of ascending node: 35.1613°
argument of perigee: 110.8791°
revolutions per day: 14.86957824
mean anomaly at epoch: 249.4659°
orbit number at epoch: 19362

The dashed part of the orbit path shows where the satellite is in the earth's shadow,  

DLR